Location: Downe
(51.3167°N, 0.0500°E)
Time: 22:48:44
(UTC+00:00)

Cosmos 2322 Rocket - Pass Details

Date: 17 November 2019
Orbit: 833 x 851 km, 71.0° (Epoch: 06 December)

Event Time Altitude Azimuth Distance (km) Brightness Sun altitude
Exits shadow 05:00:57 26° 328° (NNW) 1,624 3.4 -21.4°
Maximum altitude 05:04:19 85° 243° (WSW) 854 2.1 -20.9°
Drops below altitude 10° 05:10:00 10° 154° (SSE) 2,466 5.0 -20.0°
Sets 05:12:26 0° 154° (SSE) 3,399 5.8 -19.6°
